| time (UTC) | temp C | wind direction | speed KPH | gust KPH | rain 1hr cm | rain 24hr cm | rain mn cm | humidity % | barometer mb |
| 20260509000530 | 17 | 0 | 0.0 | 0.0 | 0.00 | 0.00 | 0.00 | 74 | 1014.4 |
| 20260509000047 | 17 | 0 | 0.0 | 1.6 | 0.00 | 0.00 | 0.00 | 74 | 1014.5 |
| 20260508235531 | 17 | 0 | 0.0 | 1.6 | 0.00 | 0.00 | 0.00 | 74 | 1014.3 |
| 20260508235033 | 17 | 0 | 0.0 | 0.0 | 0.00 | 0.00 | 0.00 | 74 | 1014.3 |
| 20260508234553 | 17 | 0 | 0.0 | 0.0 | 0.00 | 0.00 | 0.00 | 72 | 1014.4 |
| 20260508234030 | 18 | 0 | 0.0 | 0.0 | 0.00 | 0.00 | 0.00 | 69 | 1014.3 |
| 20260508233534 | 18 | 0 | 0.0 | 0.0 | 0.00 | 0.00 | 0.00 | 69 | 1014.5 |
| 20260508233049 | 18 | 0 | 0.0 | 0.0 | 0.00 | 0.00 | 0.00 | 68 | 1014.5 |
| 20260508232532 | 18 | 0 | 0.0 | 0.0 | 0.00 | 0.00 | 0.00 | 69 | 1014.4 |
| 20260508232029 | 18 | 0 | 0.0 | 0.0 | 0.00 | 0.00 | 0.00 | 67 | 1014.4 |
| 20260508231619 | 18 | 0 | 0.0 | 0.0 | 0.00 | 0.00 | 0.00 | 66 | 1014.5 |
| 20260508231032 | 18 | 0 | 0.0 | 1.6 | 0.00 | 0.00 | 0.00 | 66 | 1014.4 |
| 20260508230529 | 18 | 0 | 0.0 | 1.6 | 0.00 | 0.00 | 0.00 | 66 | 1014.5 |
| 20260508230054 | 18 | 0 | 0.0 | 1.6 | 0.00 | 0.00 | 0.00 | 65 | 1014.3 |
| 20260508225530 | 19 | 0 | 0.0 | 1.6 | 0.00 | 0.00 | 0.00 | 67 | 1014.3 |
| 20260508225034 | 19 | 0 | 0.0 | 0.0 | 0.00 | 0.00 | 0.00 | 67 | 1014.3 |
| 20260508224547 | 19 | 0 | 0.0 | 0.0 | 0.00 | 0.00 | 0.00 | 63 | 1014.3 |
| 20260508224029 | 19 | 0 | 0.0 | 1.6 | 0.00 | 0.00 | 0.00 | 64 | 1014.5 |
| 20260508223531 | 19 | 0 | 0.0 | 1.6 | 0.00 | 0.00 | 0.00 | 63 | 1014.5 |
| 20260508223044 | 20 | 0 | 0.0 | 1.6 | 0.00 | 0.00 | 0.00 | 61 | 1014.5 |
| 20260508222530 | 20 | 0 | 0.0 | 0.0 | 0.00 | 0.00 | 0.00 | 63 | 1014.4 |
| 20260508222029 | 20 | 0 | 0.0 | 0.0 | 0.00 | 0.00 | 0.00 | 63 | 1014.5 |
| 20260508221547 | 20 | 0 | 0.0 | 0.0 | 0.00 | 0.00 | 0.00 | 62 | 1014.4 |
| 20260508221032 | 20 | 0 | 0.0 | 0.0 | 0.00 | 0.00 | 0.00 | 62 | 1014.4 |
| 20260508220529 | 20 | 0 | 0.0 | 0.0 | 0.00 | 0.00 | 0.00 | 60 | 1014.3 |
| 20260508220044 | 20 | 0 | 0.0 | 0.0 | 0.00 | 0.00 | 0.00 | 60 | 1014.3 |
| 20260508215534 | 20 | 0 | 0.0 | 0.0 | 0.00 | 0.00 | 0.00 | 61 | 1014.3 |
| 20260508215031 | 20 | 0 | 0.0 | 4.8 | 0.00 | 0.00 | 0.00 | 60 | 1014.4 |
| 20260508214605 | 20 | 0 | 0.0 | 4.8 | 0.00 | 0.00 | 0.00 | 59 | 1014.4 |
| 20260508214028 | 20 | 0 | 0.0 | 0.0 | 0.00 | 0.00 | 0.00 | 61 | 1014.5 |
| 20260508213529 | 20 | 0 | 0.0 | 0.0 | 0.00 | 0.00 | 0.00 | 61 | 1014.4 |
| 20260508213048 | 20 | 0 | 0.0 | 0.0 | 0.00 | 0.00 | 0.00 | 57 | 1014.5 |
| 20260508212533 | 20 | 0 | 0.0 | 0.0 | 0.00 | 0.00 | 0.00 | 63 | 1014.4 |
| 20260508212031 | 20 | 0 | 0.0 | 0.0 | 0.00 | 0.00 | 0.00 | 60 | 1014.5 |
| 20260508211544 | 20 | 0 | 0.0 | 3.2 | 0.00 | 0.00 | 0.00 | 59 | 1014.4 |
| 20260508211032 | 20 | 0 | 0.0 | 3.2 | 0.00 | 0.00 | 0.00 | 59 | 1014.4 |
| 20260508210530 | 21 | 0 | 0.0 | 3.2 | 0.00 | 0.00 | 0.00 | 62 | 1014.3 |
| 20260508210049 | 21 | 0 | 0.0 | 4.8 | 0.00 | 0.00 | 0.00 | 60 | 1014.3 |
| 20260508205530 | 21 | 0 | 0.0 | 6.4 | 0.00 | 0.00 | 0.00 | 59 | 1014.3 |
| 20260508205031 | 21 | 0 | 0.0 | 6.4 | 0.00 | 0.00 | 0.00 | 56 | 1014.3 |
| 20260508204545 | 21 | 0 | 0.0 | 6.4 | 0.00 | 0.00 | 0.00 | 55 | 1014.3 |
| 20260508204029 | 21 | 0 | 0.0 | 3.2 | 0.00 | 0.00 | 0.00 | 58 | 1014.3 |
| 20260508203529 | 21 | 0 | 0.0 | 4.8 | 0.00 | 0.00 | 0.00 | 60 | 1014.5 |
| 20260508203104 | 21 | 0 | 0.0 | 4.8 | 0.00 | 0.00 | 0.00 | 56 | 1014.6 |
| 20260508202531 | 21 | 0 | 0.0 | 6.4 | 0.00 | 0.00 | 0.00 | 58 | 1014.5 |
| 20260508202030 | 21 | 0 | 0.0 | 6.4 | 0.00 | 0.00 | 0.00 | 55 | 1014.6 |
| 20260508201547 | 22 | 261 | 0.0 | 1.6 | 0.00 | 0.00 | 0.00 | 56 | 1014.6 |
| 20260508201030 | 22 | 0 | 0.0 | 4.8 | 0.00 | 0.00 | 0.00 | 55 | 1014.6 |
| 20260508200529 | 21 | 0 | 0.0 | 4.8 | 0.00 | 0.00 | 0.00 | 53 | 1014.7 |
| 20260508200043 | 21 | 0 | 0.0 | 4.8 | 0.00 | 0.00 | 0.00 | 57 | 1014.7 |
| 20260508195531 | 21 | 0 | 0.0 | 8.0 | 0.00 | 0.00 | 0.00 | 55 | 1014.8 |
| 20260508195031 | 21 | 0 | 0.0 | 8.0 | 0.00 | 0.00 | 0.00 | 53 | 1014.9 |
| 20260508194553 | 22 | 325 | 0.0 | 4.8 | 0.00 | 0.00 | 0.00 | 51 | 1015.0 |
| 20260508194033 | 22 | 0 | 0.0 | 3.2 | 0.00 | 0.00 | 0.00 | 54 | 1015.1 |
| 20260508193528 | 21 | 0 | 0.0 | 3.2 | 0.00 | 0.00 | 0.00 | 55 | 1015.2 |
| 20260508193105 | 21 | 0 | 0.0 | 3.2 | 0.00 | 0.00 | 0.00 | 51 | 1015.2 |
| 20260508192531 | 21 | 0 | 0.0 | 1.6 | 0.00 | 0.00 | 0.00 | 54 | 1015.3 |
| 20260508192032 | 21 | 0 | 0.0 | 1.6 | 0.00 | 0.00 | 0.00 | 54 | 1015.3 |
| 20260508191548 | 21 | 0 | 0.0 | 6.4 | 0.00 | 0.00 | 0.00 | 57 | 1015.4 |
| 20260508191029 | 21 | 0 | 0.0 | 6.4 | 0.00 | 0.00 | 0.00 | 59 | 1015.5 |
| 20260508190529 | 21 | 0 | 0.0 | 4.8 | 0.00 | 0.00 | 0.00 | 55 | 1015.5 |
| 20260508190044 | 21 | 0 | 0.0 | 4.8 | 0.00 | 0.00 | 0.00 | 56 | 1015.5 |
| 20260508185531 | 21 | 0 | 0.0 | 4.8 | 0.00 | 0.00 | 0.00 | 53 | 1015.8 |
| 20260508185029 | 21 | 0 | 0.0 | 1.6 | 0.00 | 0.00 | 0.00 | 55 | 1015.9 |
| 20260508184542 | 21 | 0 | 0.0 | 1.6 | 0.00 | 0.00 | 0.00 | 57 | 1016.1 |
| 20260508184029 | 21 | 0 | 0.0 | 6.4 | 0.00 | 0.00 | 0.00 | 53 | 1016.1 |
| 20260508183532 | 21 | 0 | 0.0 | 6.4 | 0.00 | 0.00 | 0.00 | 59 | 1016.1 |
| 20260508183041 | 20 | 0 | 0.0 | 6.4 | 0.00 | 0.00 | 0.00 | 56 | 1016.2 |
| 20260508182533 | 21 | 0 | 0.0 | 1.6 | 0.00 | 0.00 | 0.00 | 58 | 1016.2 |
| 20260508182028 | 21 | 0 | 0.0 | 1.6 | 0.00 | 0.00 | 0.00 | 60 | 1016.3 |
| 20260508181552 | 20 | 0 | 0.0 | 1.6 | 0.00 | 0.00 | 0.00 | 55 | 1016.5 |
| 20260508181032 | 20 | 0 | 0.0 | 1.6 | 0.00 | 0.00 | 0.00 | 56 | 1016.4 |
| 20260508180531 | 20 | 0 | 0.0 | 6.4 | 0.00 | 0.00 | 0.00 | 56 | 1016.6 |
| 20260508180055 | 21 | 0 | 0.0 | 6.4 | 0.00 | 0.00 | 0.00 | 55 | 1016.4 |
| 20260508175529 | 20 | 0 | 0.0 | 3.2 | 0.00 | 0.00 | 0.00 | 57 | 1016.6 |
| 20260508175032 | 20 | 0 | 0.0 | 11.3 | 0.00 | 0.00 | 0.00 | 60 | 1016.7 |
| 20260508174548 | 20 | 0 | 1.6 | 11.3 | 0.00 | 0.00 | 0.00 | 55 | 1016.8 |
| 20260508174035 | 20 | 0 | 0.0 | 0.0 | 0.00 | 0.00 | 0.00 | 57 | 1017.0 |
| 20260508173529 | 20 | 0 | 0.0 | 6.4 | 0.00 | 0.00 | 0.00 | 59 | 1017.1 |
| 20260508173048 | 20 | 0 | 0.0 | 6.4 | 0.00 | 0.00 | 0.00 | 60 | 1017.0 |
| 20260508172529 | 20 | 0 | 0.0 | 6.4 | 0.00 | 0.00 | 0.00 | 60 | 1017.1 |
| 20260508172032 | 19 | 0 | 0.0 | 11.3 | 0.00 | 0.00 | 0.00 | 63 | 1017.1 |
| 20260508171546 | 19 | 0 | 0.0 | 11.3 | 0.00 | 0.00 | 0.00 | 60 | 1017.3 |
| 20260508171032 | 19 | 0 | 1.6 | 8.0 | 0.00 | 0.00 | 0.00 | 59 | 1017.4 |
| 20260508170532 | 20 | 0 | 0.0 | 14.5 | 0.00 | 0.00 | 0.00 | 61 | 1017.4 |
| 20260508170043 | 19 | 0 | 0.0 | 14.5 | 0.00 | 0.00 | 0.00 | 60 | 1017.5 |
| 20260508165532 | 19 | 24 | 0.0 | 12.9 | 0.00 | 0.00 | 0.00 | 63 | 1017.6 |
| 20260508165031 | 18 | 0 | 1.6 | 12.9 | 0.00 | 0.00 | 0.00 | 61 | 1017.6 |
| 20260508164553 | 18 | 0 | 0.0 | 8.0 | 0.00 | 0.00 | 0.00 | 64 | 1017.8 |
| 20260508164031 | 18 | 352 | 0.0 | 4.8 | 0.00 | 0.00 | 0.00 | 62 | 1017.9 |
| 20260508163532 | 18 | 0 | 0.0 | 4.8 | 0.00 | 0.00 | 0.00 | 62 | 1018.0 |
| 20260508163048 | 18 | 250 | 0.0 | 6.4 | 0.00 | 0.00 | 0.00 | 61 | 1018.0 |
| 20260508162530 | 18 | 0 | 0.0 | 6.4 | 0.00 | 0.00 | 0.00 | 61 | 1018.0 |
| 20260508162032 | 18 | 0 | 0.0 | 4.8 | 0.00 | 0.00 | 0.00 | 59 | 1018.0 |
| 20260508161545 | 18 | 0 | 0.0 | 4.8 | 0.00 | 0.00 | 0.00 | 63 | 1018.0 |
| 20260508161031 | 18 | 0 | 0.0 | 4.8 | 0.00 | 0.00 | 0.00 | 60 | 1018.1 |
| 20260508160531 | 18 | 0 | 0.0 | 1.6 | 0.00 | 0.00 | 0.00 | 64 | 1018.1 |
| 20260508160044 | 18 | 0 | 0.0 | 1.6 | 0.00 | 0.00 | 0.00 | 60 | 1018.3 |
| 20260508155531 | 18 | 0 | 0.0 | 0.0 | 0.00 | 0.00 | 0.00 | 60 | 1018.4 |
| 20260508155031 | 18 | 0 | 0.0 | 0.0 | 0.00 | 0.00 | 0.00 | 65 | 1018.4 |
| 20260508154541 | 18 | 0 | 0.0 | 4.8 | 0.00 | 0.00 | 0.00 | 62 | 1018.3 |
| 20260508154029 | 18 | 0 | 0.0 | 8.0 | 0.00 | 0.00 | 0.00 | 66 | 1018.5 |
| 20260508153529 | 18 | 78 | 0.0 | 8.0 | 0.00 | 0.00 | 0.00 | 63 | 1018.4 |
| 20260508153048 | 18 | 0 | 0.0 | 6.4 | 0.00 | 0.00 | 0.00 | 62 | 1018.5 |
| 20260508152530 | 18 | 0 | 0.0 | 6.4 | 0.00 | 0.00 | 0.00 | 63 | 1018.5 |
| 20260508152031 | 18 | 0 | 0.0 | 6.4 | 0.00 | 0.00 | 0.00 | 61 | 1018.5 |
| 20260508151541 | 18 | 0 | 0.0 | 6.4 | 0.00 | 0.00 | 0.00 | 66 | 1018.5 |
| 20260508151031 | 18 | 0 | 1.6 | 6.4 | 0.00 | 0.00 | 0.00 | 63 | 1018.5 |
| 20260508150530 | 17 | 0 | 0.0 | 4.8 | 0.00 | 0.00 | 0.00 | 63 | 1018.6 |
| 20260508150041 | 17 | 0 | 0.0 | 6.4 | 0.00 | 0.00 | 0.00 | 68 | 1018.5 |
| 20260508145531 | 17 | 360 | 0.0 | 6.4 | 0.00 | 0.00 | 0.00 | 63 | 1018.5 |
| 20260508145030 | 17 | 0 | 0.0 | 0.0 | 0.00 | 0.00 | 0.00 | 60 | 1018.5 |
| 20260508144547 | 17 | 0 | 0.0 | 8.0 | 0.00 | 0.00 | 0.00 | 66 | 1018.4 |
| 20260508144030 | 17 | 0 | 1.6 | 8.0 | 0.00 | 0.00 | 0.00 | 66 | 1018.5 |
| 20260508143531 | 16 | 0 | 0.0 | 1.6 | 0.00 | 0.00 | 0.00 | 67 | 1018.5 |
| 20260508143043 | 16 | 0 | 0.0 | 1.6 | 0.00 | 0.00 | 0.00 | 69 | 1018.6 |
| 20260508142532 | 16 | 0 | 0.0 | 0.0 | 0.00 | 0.00 | 0.00 | 68 | 1018.7 |
| 20260508142029 | 16 | 0 | 0.0 | 0.0 | 0.00 | 0.00 | 0.00 | 67 | 1018.7 |
| 20260508141543 | 16 | 0 | 0.0 | 1.6 | 0.00 | 0.00 | 0.00 | 69 | 1018.7 |
| 20260508141029 | 15 | 0 | 0.0 | 1.6 | 0.00 | 0.00 | 0.00 | 68 | 1018.7 |
| 20260508140530 | 15 | 0 | 0.0 | 0.0 | 0.00 | 0.00 | 0.00 | 68 | 1018.7 |
| 20260508140043 | 15 | 0 | 0.0 | 3.2 | 0.00 | 0.00 | 0.00 | 68 | 1018.8 |
| 20260508135531 | 15 | 0 | 0.0 | 3.2 | 0.00 | 0.10 | 0.00 | 68 | 1018.9 |
| 20260508135030 | 15 | 0 | 0.0 | 8.0 | 0.00 | 0.10 | 0.00 | 70 | 1019.0 |
| 20260508134544 | 15 | 0 | 0.0 | 8.0 | 0.00 | 0.10 | 0.00 | 68 | 1018.9 |
| 20260508134030 | 15 | 0 | 1.6 | 8.0 | 0.00 | 0.10 | 0.00 | 68 | 1019.0 |
| 20260508133530 | 15 | 0 | 0.0 | 1.6 | 0.00 | 0.10 | 0.00 | 69 | 1019.0 |
| 20260508133048 | 15 | 0 | 0.0 | 4.8 | 0.00 | 0.10 | 0.00 | 70 | 1018.8 |
| 20260508132531 | 14 | 0 | 0.0 | 4.8 | 0.00 | 0.10 | 0.00 | 68 | 1018.8 |
| 20260508132028 | 14 | 52 | 0.0 | 0.0 | 0.00 | 0.10 | 0.00 | 70 | 1018.8 |
| 20260508131547 | 14 | 0 | 0.0 | 0.0 | 0.00 | 0.10 | 0.00 | 70 | 1018.7 |
| 20260508131031 | 14 | 0 | 0.0 | 0.0 | 0.00 | 0.10 | 0.00 | 72 | 1018.7 |
| 20260508130531 | 14 | 0 | 0.0 | 4.8 | 0.00 | 0.10 | 0.00 | 73 | 1018.7 |
| 20260508130045 | 13 | 0 | 0.0 | 8.0 | 0.00 | 0.10 | 0.00 | 74 | 1018.7 |
| 20260508125532 | 13 | 0 | 0.0 | 8.0 | 0.00 | 0.18 | 0.00 | 74 | 1018.6 |
| 20260508125050 | 13 | 200 | 0.0 | 3.2 | 0.00 | 0.18 | 0.00 | 75 | 1018.7 |
| 20260508124549 | 13 | 0 | 0.0 | 1.6 | 0.00 | 0.18 | 0.00 | 77 | 1018.6 |
| 20260508124033 | 13 | 0 | 0.0 | 6.4 | 0.00 | 0.18 | 0.00 | 77 | 1018.5 |
| 20260508123530 | 13 | 0 | 0.0 | 8.0 | 0.00 | 0.18 | 0.00 | 78 | 1018.5 |
| 20260508123048 | 13 | 0 | 0.0 | 8.0 | 0.00 | 0.18 | 0.00 | 77 | 1018.5 |
| 20260508122532 | 12 | 0 | 0.0 | 6.4 | 0.00 | 0.18 | 0.00 | 79 | 1018.4 |
| 20260508122033 | 12 | 0 | 0.0 | 9.7 | 0.00 | 0.18 | 0.00 | 78 | 1018.3 |
| 20260508121549 | 12 | 0 | 0.0 | 11.3 | 0.00 | 0.18 | 0.00 | 79 | 1018.3 |
| 20260508121033 | 12 | 264 | 1.6 | 11.3 | 0.00 | 0.18 | 0.00 | 80 | 1018.2 |
| 20260508120532 | 12 | 261 | 1.6 | 11.3 | 0.00 | 0.18 | 0.00 | 80 | 1018.2 |
| 20260508120048 | 12 | 0 | 0.0 | 4.8 | 0.00 | 0.18 | 0.00 | 81 | 1018.3 |
| 20260508115533 | 11 | 0 | 0.0 | 4.8 | 0.00 | 0.36 | 0.00 | 82 | 1018.1 |
| 20260508115032 | 11 | 0 | 0.0 | 4.8 | 0.00 | 0.36 | 0.00 | 81 | 1017.9 |
| 20260508114602 | 11 | 0 | 0.0 | 6.4 | 0.00 | 0.36 | 0.00 | 81 | 1018.0 |
| 20260508114032 | 11 | 0 | 0.0 | 6.4 | 0.00 | 0.36 | 0.00 | 82 | 1017.9 |
| 20260508113532 | 11 | 238 | 1.6 | 6.4 | 0.00 | 0.36 | 0.00 | 82 | 1017.8 |
| 20260508113045 | 11 | 0 | 1.6 | 6.4 | 0.00 | 0.36 | 0.00 | 82 | 1017.7 |
| 20260508112532 | 11 | 252 | 1.6 | 6.4 | 0.00 | 0.36 | 0.00 | 82 | 1017.5 |
| 20260508112031 | 11 | 257 | 1.6 | 6.4 | 0.00 | 0.36 | 0.00 | 82 | 1017.5 |
| 20260508111558 | 11 | 0 | 1.6 | 6.4 | 0.00 | 0.36 | 0.00 | 82 | 1017.3 |
| 20260508111033 | 11 | 0 | 1.6 | 6.4 | 0.00 | 0.36 | 0.00 | 82 | 1017.2 |
| 20260508110532 | 11 | 160 | 1.6 | 6.4 | 0.00 | 0.36 | 0.00 | 83 | 1017.1 |
| 20260508110048 | 11 | 252 | 1.6 | 6.4 | 0.00 | 0.36 | 0.00 | 83 | 1017.1 |
| 20260508105533 | 11 | 271 | 1.6 | 6.4 | 0.00 | 0.43 | 0.00 | 84 | 1017.1 |
| 20260508105033 | 11 | 313 | 1.6 | 6.4 | 0.00 | 0.43 | 0.00 | 84 | 1017.0 |
| 20260508104547 | 10 | 313 | 1.6 | 6.4 | 0.00 | 0.43 | 0.00 | 84 | 1017.0 |
| 20260508104033 | 10 | 313 | 0.0 | 6.4 | 0.00 | 0.43 | 0.00 | 85 | 1016.8 |
| 20260508103533 | 10 | 322 | 1.6 | 3.2 | 0.00 | 0.43 | 0.00 | 86 | 1016.6 |
| 20260508103046 | 10 | 225 | 1.6 | 3.2 | 0.00 | 0.43 | 0.00 | 86 | 1016.6 |
| 20260508102532 | 10 | 225 | 1.6 | 6.4 | 0.00 | 0.43 | 0.00 | 86 | 1016.4 |
| 20260508102032 | 10 | 225 | 1.6 | 6.4 | 0.00 | 0.43 | 0.00 | 86 | 1016.4 |
| 20260508101544 | 10 | 0 | 1.6 | 4.8 | 0.00 | 0.43 | 0.00 | 86 | 1016.5 |
| 20260508101031 | 10 | 225 | 1.6 | 4.8 | 0.00 | 0.43 | 0.00 | 86 | 1016.4 |
| 20260508100533 | 10 | 225 | 1.6 | 6.4 | 0.00 | 0.43 | 0.00 | 86 | 1016.2 |
| 20260508100049 | 10 | 224 | 1.6 | 6.4 | 0.00 | 0.43 | 0.00 | 87 | 1016.2 |
| 20260508095532 | 10 | 223 | 1.6 | 4.8 | 0.00 | 0.48 | 0.00 | 89 | 1016.1 |
| 20260508095033 | 10 | 223 | 1.6 | 4.8 | 0.00 | 0.48 | 0.00 | 89 | 1016.0 |
| 20260508094548 | 10 | 223 | 1.6 | 3.2 | 0.00 | 0.48 | 0.00 | 90 | 1015.9 |
| 20260508094032 | 10 | 221 | 1.6 | 3.2 | 0.00 | 0.48 | 0.00 | 91 | 1016.0 |
| 20260508093532 | 10 | 221 | 1.6 | 4.8 | 0.00 | 0.48 | 0.00 | 91 | 1016.0 |
| 20260508093046 | 10 | 221 | 1.6 | 4.8 | 0.00 | 0.48 | 0.00 | 90 | 1015.9 |
| 20260508092533 | 10 | 221 | 0.0 | 3.2 | 0.00 | 0.48 | 0.00 | 89 | 1016.1 |
| 20260508092030 | 10 | 0 | 0.0 | 3.2 | 0.00 | 0.48 | 0.00 | 89 | 1016.0 |
| 20260508091603 | 10 | 0 | 0.0 | 4.8 | 0.00 | 0.48 | 0.00 | 88 | 1016.0 |
| 20260508091033 | 11 | 221 | 1.6 | 4.8 | 0.00 | 0.48 | 0.00 | 87 | 1016.0 |
| 20260508090532 | 11 | 221 | 1.6 | 4.8 | 0.00 | 0.48 | 0.00 | 87 | 1015.8 |
| 20260508090052 | 11 | 221 | 0.0 | 4.8 | 0.00 | 0.48 | 0.00 | 85 | 1015.8 |
| 20260508085530 | 11 | 231 | 0.0 | 6.4 | 0.00 | 0.51 | 0.00 | 85 | 1015.8 |
| 20260508085032 | 11 | 0 | 1.6 | 6.4 | 0.00 | 0.51 | 0.00 | 85 | 1015.8 |
| 20260508084542 | 11 | 235 | 1.6 | 8.0 | 0.00 | 0.51 | 0.00 | 86 | 1015.9 |
| 20260508084032 | 11 | 242 | 3.2 | 8.0 | 0.00 | 0.51 | 0.00 | 87 | 1015.9 |
| 20260508083531 | 11 | 254 | 0.0 | 6.4 | 0.00 | 0.51 | 0.00 | 88 | 1015.8 |
| 20260508083049 | 11 | 0 | 1.6 | 6.4 | 0.00 | 0.51 | 0.00 | 89 | 1015.6 |
| 20260508082538 | 10 | 254 | 1.6 | 6.4 | 0.00 | 0.51 | 0.00 | 90 | 1015.7 |
| 20260508082033 | 10 | 269 | 3.2 | 6.4 | 0.00 | 0.51 | 0.00 | 90 | 1015.6 |
| 20260508081547 | 10 | 253 | 3.2 | 6.4 | 0.00 | 0.51 | 0.00 | 91 | 1015.6 |
| 20260508081034 | 10 | 310 | 1.6 | 3.2 | 0.00 | 0.51 | 0.00 | 90 | 1015.6 |
| 20260508080532 | 10 | 0 | 0.0 | 3.2 | 0.00 | 0.51 | 0.00 | 89 | 1015.6 |
| 20260508080041 | 10 | 0 | 0.0 | 3.2 | 0.00 | 0.51 | 0.00 | 89 | 1015.5 |
| 20260508075536 | 10 | 310 | 0.0 | 6.4 | 0.00 | 0.53 | 0.00 | 90 | 1015.5 |
| 20260508075032 | 10 | 310 | 1.6 | 6.4 | 0.00 | 0.53 | 0.00 | 90 | 1015.6 |
| 20260508074543 | 10 | 312 | 1.6 | 6.4 | 0.00 | 0.53 | 0.00 | 89 | 1015.6 |
| 20260508074032 | 10 | 317 | 0.0 | 4.8 | 0.00 | 0.53 | 0.00 | 90 | 1015.6 |
| 20260508073533 | 10 | 317 | 1.6 | 4.8 | 0.00 | 0.53 | 0.00 | 90 | 1015.5 |
| 20260508073051 | 10 | 0 | 0.0 | 3.2 | 0.00 | 0.53 | 0.00 | 91 | 1015.4 |
| 20260508072533 | 10 | 0 | 0.0 | 0.0 | 0.00 | 0.53 | 0.00 | 91 | 1015.3 |
| 20260508072030 | 10 | 0 | 0.0 | 0.0 | 0.00 | 0.53 | 0.00 | 91 | 1015.2 |
| 20260508071545 | 10 | 0 | 0.0 | 0.0 | 0.00 | 0.53 | 0.00 | 91 | 1015.3 |
| 20260508071032 | 10 | 0 | 0.0 | 1.6 | 0.00 | 0.53 | 0.00 | 91 | 1015.3 |
| 20260508070536 | 10 | 0 | 0.0 | 3.2 | 0.00 | 0.53 | 0.00 | 91 | 1015.3 |
| 20260508070044 | 10 | 0 | 0.0 | 3.2 | 0.00 | 0.53 | 0.00 | 91 | 1015.3 |
| 20260508065533 | 10 | 0 | 0.0 | 3.2 | 0.00 | 0.61 | 0.00 | 91 | 1015.1 |
| 20260508065032 | 10 | 321 | 0.0 | 3.2 | 0.00 | 0.61 | 0.00 | 90 | 1014.9 |
| 20260508064542 | 10 | 321 | 0.0 | 3.2 | 0.00 | 0.61 | 0.00 | 90 | 1015.0 |
| 20260508064033 | 10 | 0 | 0.0 | 3.2 | 0.00 | 0.61 | 0.00 | 89 | 1014.9 |
| 20260508063533 | 10 | 0 | 0.0 | 3.2 | 0.00 | 0.61 | 0.00 | 89 | 1015.0 |
| 20260508063044 | 11 | 0 | 0.0 | 3.2 | 0.00 | 0.61 | 0.00 | 88 | 1015.1 |
| 20260508062532 | 11 | 0 | 0.0 | 3.2 | 0.00 | 0.61 | 0.00 | 88 | 1015.1 |
| 20260508062032 | 11 | 0 | 0.0 | 3.2 | 0.00 | 0.61 | 0.00 | 87 | 1015.0 |
| 20260508061545 | 11 | 0 | 0.0 | 3.2 | 0.00 | 0.61 | 0.00 | 87 | 1015.0 |
| 20260508061033 | 11 | 0 | 0.0 | 1.6 | 0.00 | 0.61 | 0.00 | 87 | 1014.9 |
| 20260508060532 | 11 | 0 | 0.0 | 1.6 | 0.00 | 0.61 | 0.00 | 87 | 1014.9 |
| 20260508060049 | 11 | 0 | 0.0 | 3.2 | 0.00 | 0.61 | 0.00 | 86 | 1015.0 |
| 20260508055533 | 11 | 0 | 0.0 | 3.2 | 0.00 | 0.76 | 0.00 | 85 | 1015.0 |
| 20260508055034 | 11 | 0 | 0.0 | 3.2 | 0.00 | 0.76 | 0.00 | 85 | 1015.1 |
| 20260508054547 | 11 | 321 | 0.0 | 3.2 | 0.00 | 0.76 | 0.00 | 85 | 1015.0 |
| 20260508054032 | 11 | 0 | 0.0 | 3.2 | 0.00 | 0.76 | 0.00 | 85 | 1015.1 |
| 20260508053533 | 11 | 321 | 0.0 | 3.2 | 0.00 | 0.76 | 0.00 | 85 | 1014.9 |
| 20260508053055 | 11 | 0 | 0.0 | 1.6 | 0.00 | 0.76 | 0.00 | 83 | 1015.0 |
| 20260508052534 | 12 | 0 | 0.0 | 1.6 | 0.00 | 0.76 | 0.00 | 82 | 1015.0 |
| 20260508052034 | 12 | 0 | 0.0 | 0.0 | 0.00 | 0.76 | 0.00 | 82 | 1015.1 |
| 20260508051547 | 12 | 0 | 0.0 | 0.0 | 0.00 | 0.76 | 0.00 | 81 | 1015.0 |
| 20260508051035 | 12 | 0 | 0.0 | 0.0 | 0.00 | 0.76 | 0.00 | 80 | 1015.1 |
| 20260508050532 | 12 | 0 | 0.0 | 0.0 | 0.00 | 0.76 | 0.00 | 81 | 1014.9 |
| 20260508050054 | 12 | 0 | 0.0 | 1.6 | 0.00 | 0.76 | 0.00 | 80 | 1014.9 |
| 20260508045532 | 12 | 0 | 0.0 | 6.4 | 0.00 | 0.84 | 0.00 | 78 | 1014.7 |
| 20260508045032 | 12 | 321 | 1.6 | 6.4 | 0.00 | 0.84 | 0.00 | 78 | 1014.9 |
| 20260508044544 | 12 | 223 | 0.0 | 3.2 | 0.00 | 0.84 | 0.00 | 79 | 1014.9 |
| 20260508044032 | 13 | 223 | 0.0 | 3.2 | 0.00 | 0.84 | 0.00 | 78 | 1014.6 |
| 20260508043531 | 13 | 223 | 0.0 | 3.2 | 0.00 | 0.84 | 0.00 | 76 | 1014.6 |
| 20260508043052 | 13 | 0 | 0.0 | 1.6 | 0.00 | 0.84 | 0.00 | 76 | 1014.6 |
| 20260508042533 | 13 | 0 | 0.0 | 1.6 | 0.00 | 0.84 | 0.00 | 76 | 1014.6 |
| 20260508042034 | 13 | 0 | 0.0 | 6.4 | 0.00 | 0.84 | 0.00 | 75 | 1014.6 |
| 20260508041547 | 13 | 0 | 0.0 | 6.4 | 0.00 | 0.84 | 0.00 | 76 | 1014.5 |
| 20260508041032 | 13 | 219 | 1.6 | 6.4 | 0.00 | 0.84 | 0.00 | 73 | 1014.5 |
| 20260508040533 | 13 | 0 | 0.0 | 4.8 | 0.00 | 0.84 | 0.00 | 73 | 1014.5 |
| 20260508040045 | 13 | 0 | 0.0 | 6.4 | 0.00 | 0.84 | 0.00 | 74 | 1014.5 |
| 20260508035534 | 13 | 46 | 1.6 | 6.4 | 0.00 | 0.84 | 0.84 | 75 | 1014.6 |
| 20260508035035 | 13 | 0 | 1.6 | 6.4 | 0.00 | 0.84 | 0.84 | 73 | 1014.5 |
| 20260508034547 | 13 | 0 | 0.0 | 8.0 | 0.00 | 0.84 | 0.84 | 74 | 1014.6 |
| 20260508034032 | 13 | 0 | 0.0 | 8.0 | 0.00 | 0.84 | 0.84 | 73 | 1014.4 |
| 20260508033530 | 13 | 0 | 0.0 | 8.0 | 0.00 | 0.84 | 0.84 | 73 | 1014.4 |
| 20260508033041 | 13 | 30 | 0.0 | 4.8 | 0.00 | 0.84 | 0.84 | 73 | 1014.4 |
| 20260508032531 | 13 | 213 | 1.6 | 4.8 | 0.00 | 0.84 | 0.84 | 74 | 1014.5 |
| 20260508032029 | 13 | 213 | 0.0 | 4.8 | 0.00 | 0.84 | 0.84 | 74 | 1014.7 |
| 20260508031548 | 13 | 0 | 0.0 | 4.8 | 0.00 | 0.84 | 0.84 | 73 | 1014.5 |
| 20260508031031 | 13 | 0 | 0.0 | 0.0 | 0.00 | 0.84 | 0.84 | 75 | 1014.5 |
| 20260508030531 | 13 | 0 | 0.0 | 0.0 | 0.00 | 0.84 | 0.84 | 75 | 1014.5 |
| 20260508030047 | 13 | 0 | 0.0 | 0.0 | 0.00 | 0.84 | 0.84 | 74 | 1014.5 |
| 20260508025529 | 14 | 0 | 0.0 | 0.0 | 0.00 | 1.12 | 0.84 | 74 | 1014.4 |
| 20260508025032 | 14 | 0 | 0.0 | 0.0 | 0.00 | 1.12 | 0.84 | 71 | 1014.5 |
| 20260508024554 | 14 | 0 | 0.0 | 0.0 | 0.00 | 1.12 | 0.84 | 72 | 1014.5 |
| 20260508024031 | 14 | 0 | 0.0 | 9.7 | 0.00 | 1.12 | 0.84 | 71 | 1014.4 |
| 20260508023530 | 14 | 0 | 1.6 | 9.7 | 0.00 | 1.12 | 0.84 | 69 | 1014.5 |
| 20260508023042 | 14 | 0 | 1.6 | 9.7 | 0.00 | 1.12 | 0.84 | 70 | 1014.3 |
| 20260508022532 | 14 | 219 | 0.0 | 9.7 | 0.00 | 1.12 | 0.84 | 71 | 1014.1 |
| 20260508022032 | 14 | 221 | 3.2 | 12.9 | 0.00 | 1.12 | 0.84 | 70 | 1014.0 |
| 20260508021547 | 15 | 228 | 3.2 | 12.9 | 0.00 | 1.12 | 0.84 | 69 | 1013.9 |
| 20260508021036 | 15 | 278 | 4.8 | 12.9 | 0.00 | 1.12 | 0.84 | 69 | 1013.8 |
| 20260508020532 | 15 | 181 | 3.2 | 12.9 | 0.00 | 1.12 | 0.84 | 67 | 1013.4 |
| 20260508020049 | 15 | 360 | 3.2 | 16.1 | 0.00 | 1.12 | 0.84 | 68 | 1013.5 |
| 20260508015531 | 15 | 242 | 3.2 | 16.1 | 0.00 | 1.27 | 0.84 | 68 | 1013.4 |
| 20260508015032 | 15 | 151 | 4.8 | 14.5 | 0.00 | 1.27 | 0.84 | 67 | 1013.3 |
| 20260508014545 | 15 | 229 | 3.2 | 20.9 | 0.00 | 1.27 | 0.84 | 67 | 1013.2 |
| 20260508014030 | 15 | 352 | 4.8 | 20.9 | 0.00 | 1.27 | 0.84 | 67 | 1013.1 |
| 20260508013532 | 15 | 230 | 3.2 | 20.9 | 0.00 | 1.27 | 0.84 | 66 | 1013.0 |
| 20260508013047 | 15 | 51 | 6.4 | 20.9 | 0.00 | 1.27 | 0.84 | 66 | 1013.0 |
| 20260508012531 | 15 | 189 | 3.2 | 16.1 | 0.00 | 1.27 | 0.84 | 66 | 1012.9 |
| 20260508012029 | 15 | 194 | 4.8 | 19.3 | 0.00 | 1.27 | 0.84 | 67 | 1012.7 |
| 20260508011543 | 15 | 221 | 6.4 | 19.3 | 0.00 | 1.27 | 0.84 | 67 | 1012.5 |
| 20260508011032 | 15 | 25 | 1.6 | 17.7 | 0.00 | 1.27 | 0.84 | 68 | 1012.4 |
| 20260508010531 | 15 | 80 | 4.8 | 17.7 | 0.00 | 1.27 | 0.84 | 67 | 1012.3 |
| 20260508010042 | 15 | 231 | 3.2 | 16.1 | 0.00 | 1.27 | 0.84 | 69 | 1012.3 |
| 20260508005530 | 15 | 281 | 4.8 | 17.7 | 0.00 | 1.55 | 0.84 | 68 | 1012.3 |
| 20260508005030 | 15 | 232 | 4.8 | 17.7 | 0.00 | 1.55 | 0.84 | 69 | 1012.3 |
| 20260508004543 | 15 | 218 | 3.2 | 14.5 | 0.00 | 1.55 | 0.84 | 70 | 1012.1 |
| 20260508004032 | 15 | 240 | 6.4 | 14.5 | 0.00 | 1.55 | 0.84 | 70 | 1012.1 |
| 20260508003531 | 15 | 198 | 3.2 | 17.7 | 0.00 | 1.55 | 0.84 | 71 | 1011.9 |
| 20260508003045 | 16 | 309 | 1.6 | 17.7 | 0.00 | 1.55 | 0.84 | 72 | 1011.9 |
| 20260508002529 | 16 | 234 | 6.4 | 17.7 | 0.00 | 1.55 | 0.84 | 71 | 1011.9 |
| 20260508002034 | 16 | 202 | 4.8 | 16.1 | 0.00 | 1.55 | 0.84 | 71 | 1011.8 |
| 20260508001542 | 16 | 0 | 3.2 | 16.1 | 0.00 | 1.55 | 0.84 | 72 | 1011.7 |
| 20260508001029 | 16 | 232 | 4.8 | 20.9 | 0.00 | 1.55 | 0.84 | 72 | 1011.4 |